Погода в Спасске

Россия / Кемеровская область (Кузбасс)     52°44′52″N   87°45′13″E
темп.,
°C
ветер,
м/с
пор.,
м/с
влажн.,
%
обл.,
%
осадки,
мм/ч
давл.,
гПа
погр.,
м
8 мая, сб
сб801:00+7юз2298100 0.4 101921
04:00+6ююз229483 0.0 102021
07:00+7зюз12925 0.0 102191
10:00+11з37590 0.0 10201168
13:00+15з46405 0.0 10191680
16:00+15з56395 0.0 10181677
19:00+13зсз46485 0.0 10181322
22:00+8ююз22715 0.0 102024
9 мая, вс
вс901:00+7ююз267567 0.0 102093
04:00+7ююз277278 0.0 1018166
07:00+8ю137242 0.0 101997
10:00+12з2955100 0.0 1017797
13:00+16зсз5104366 0.0 10152300
16:00+15сз5105745 0.3 10151628
19:00+13с34551 0.4 1015945
22:00+6св227619 0.0 101830
10 мая, пн
пн1001:00+4всв22755 0.0 101827
04:00+3в411785 0.0 1018464
07:00+4в512630 0.0 1017533
10:00+9в7105113 0.0 1015757
13:00+13в6743100 0.0 10121102
16:00+13в6743100 0.0 10101047
19:00+10всв61150100 0.0 1010757
22:00+8в6145998 0.0 1009777
11 мая, вт
вт1101:00+8в51260100 0.0 1010633
04:00+7в486189 0.0 1010454
07:00+7в4863100 0.0 1011457
10:00+9в3560100 0.0 1011497
13:00+10в236096 0.0 1011629
16:00+11в2360100 0.0 1011678
19:00+12в1263100 0.0 1011458
22:00+8с1180100 0.0 101210
12 мая, ср
ср1201:00+6ссз1191100 0.0 101210
04:00+5сз1196100 0.0 101210
07:00+7сз1187100 0.0 101283
10:00+10юв1361100 0.1 1012994
13:00+9ююв1176100 0.8 1013979
16:00+8ююз1284100 0.6 1014538
19:00+8сз1182100 0.9 1015390
22:00+7зюз0195100 1.3 101715